Time,TemperatureF,DewpointF,PressureIn,WindDirection,WindDirectionDegrees,WindSpeedMPH,WindSpeedGustMPH,Humidity,HourlyPrecipIn,Conditions,Clouds,dailyrainin,SolarRadiationWatts/m^2,SoftwareType,DateUTC
2013-08-05 00:02:00,53.9,42.0,29.87,East,90,2.0,3.0,64,0.00,,,0.00,0,Wunderground v.1.15,2013-08-05 06:02:00,
2013-08-05 00:11:00,53.8,41.9,29.88,East,88,2.0,2.0,64,0.00,,,0.00,0,Wunderground v.1.15,2013-08-05 06:11:00,
2013-08-05 00:18:00,53.6,42.5,29.88,ESE,116,3.0,4.0,66,0.00,,,0.00,0,Wunderground v.1.15,2013-08-05 06:18:00,
2013-08-05 00:23:00,53.3,41.8,29.88,ESE,115,3.0,3.0,65,0.00,,,0.00,0,Wunderground v.1.15,2013-08-05 06:23:00,
2013-08-05 00:32:00,52.8,41.7,29.88,ESE,112,1.0,1.0,66,0.00,,,0.00,0,Wunderground v.1.15,2013-08-05 06:32:00,
2013-08-05 00:37:00,52.1,41.9,29.88,ENE,76,2.0,5.0,68,0.00,,,0.00,0,Wunderground v.1.15,2013-08-05 06:37:00,
2013-08-05 00:44:00,51.5,42.0,29.89,East,83,3.0,3.0,70,0.00,,,0.00,0,Wunderground v.1.15,2013-08-05 06:44:00,
2013-08-05 00:50:00,51.0,41.9,29.89,East,82,3.0,3.0,71,0.00,,,0.00,0,Wunderground v.1.15,2013-08-05 06:50:00,
2013-08-05 00:56:00,50.8,41.4,29.89,East,83,3.0,4.0,70,0.00,,,0.00,0,Wunderground v.1.15,2013-08-05 06:56:00,
2013-08-05 01:01:00,50.8,41.4,29.89,East,82,2.0,3.0,70,0.00,,,0.00,0,Wunderground v.1.15,2013-08-05 07:01:00,
2013-08-05 01:08:00,50.9,41.1,29.89,East,80,2.0,3.0,69,0.00,,,0.00,0,Wunderground v.1.15,2013-08-05 07:08:00,
2013-08-05 01:14:00,51.1,42.0,29.89,East,80,1.0,3.0,71,0.00,,,0.00,0,Wunderground v.1.15,2013-08-05 07:14:00,
2013-08-05 01:20:00,51.3,42.2,29.89,ESE,116,2.0,3.0,71,0.00,,,0.00,0,Wunderground v.1.15,2013-08-05 07:20:00,
2013-08-05 01:26:00,51.5,41.7,29.89,ESE,116,2.0,3.0,69,0.00,,,0.00,0,Wunderground v.1.15,2013-08-05 07:26:00,
2013-08-05 01:32:00,51.7,41.5,29.89,ESE,108,0.0,1.0,68,0.00,,,0.00,0,Wunderground v.1.15,2013-08-05 07:32:00,
2013-08-05 01:38:00,51.7,41.9,29.89,ESE,105,1.0,5.0,69,0.00,,,0.00,0,Wunderground v.1.15,2013-08-05 07:38:00,
2013-08-05 01:43:00,51.7,41.1,29.89,East,90,2.0,3.0,67,0.00,,,0.00,0,Wunderground v.1.15,2013-08-05 07:43:00,
2013-08-05 01:49:00,51.8,41.6,29.89,East,90,1.0,1.0,68,0.00,,,0.00,0,Wunderground v.1.15,2013-08-05 07:49:00,
2013-08-05 01:56:00,51.7,41.9,29.88,East,84,1.0,2.0,69,0.00,,,0.00,0,Wunderground v.1.15,2013-08-05 07:56:00,
2013-08-05 02:02:00,51.2,40.6,29.88,ENE,78,2.0,5.0,67,0.00,,,0.00,0,Wunderground v.1.15,2013-08-05 08:02:00,
2013-08-05 02:07:00,50.6,40.0,29.88,ENE,76,3.0,5.0,67,0.00,,,0.00,0,Wunderground v.1.15,2013-08-05 08:07:00,
2013-08-05 02:13:00,50.0,40.2,29.88,ENE,77,4.0,6.0,69,0.00,,,0.00,0,Wunderground v.1.15,2013-08-05 08:13:00,
2013-08-05 02:20:00,49.5,40.5,29.88,East,83,4.0,4.0,71,0.00,,,0.00,0,Wunderground v.1.15,2013-08-05 08:20:00,
2013-08-05 02:26:00,49.4,40.7,29.88,East,86,3.0,4.0,72,0.00,,,0.00,0,Wunderground v.1.15,2013-08-05 08:26:00,
2013-08-05 02:31:00,49.2,40.6,29.88,East,82,3.0,4.0,72,0.00,,,0.00,0,Wunderground v.1.15,2013-08-05 08:31:00,
2013-08-05 02:38:00,49.2,40.6,29.88,East,86,3.0,4.0,72,0.00,,,0.00,0,Wunderground v.1.15,2013-08-05 08:38:00,
2013-08-05 02:44:00,49.2,40.9,29.88,East,86,3.0,5.0,73,0.00,,,0.00,0,Wunderground v.1.15,2013-08-05 08:44:00,
2013-08-05 02:50:00,49.2,40.6,29.88,East,88,3.0,3.0,72,0.00,,,0.00,0,Wunderground v.1.15,2013-08-05 08:50:00,
2013-08-05 02:56:00,49.1,41.2,29.88,East,83,3.0,3.0,74,0.00,,,0.00,0,Wunderground v.1.15,2013-08-05 08:56:00,
2013-08-05 03:01:00,48.9,41.0,29.88,East,99,3.0,3.0,74,0.00,,,0.00,0,Wunderground v.1.15,2013-08-05 09:01:00,
2013-08-05 03:08:00,48.6,40.7,29.87,East,84,2.0,4.0,74,0.00,,,0.00,0,Wunderground v.1.15,2013-08-05 09:08:00,
2013-08-05 03:14:00,48.3,40.4,29.87,East,88,3.0,3.0,74,0.00,,,0.00,0,Wunderground v.1.15,2013-08-05 09:14:00,
2013-08-05 03:20:00,48.1,40.5,29.87,ESE,117,3.0,6.0,75,0.00,,,0.00,0,Wunderground v.1.15,2013-08-05 09:20:00,
2013-08-05 03:25:00,47.9,40.7,29.87,East,88,4.0,6.0,76,0.00,,,0.00,0,Wunderground v.1.15,2013-08-05 09:25:00,
2013-08-05 03:32:00,47.7,40.2,29.87,East,86,4.0,4.0,75,0.00,,,0.00,0,Wunderground v.1.15,2013-08-05 09:32:00,
2013-08-05 03:38:00,47.5,40.0,29.87,East,92,3.0,4.0,75,0.00,,,0.00,0,Wunderground v.1.15,2013-08-05 09:38:00,
2013-08-05 03:44:00,47.3,40.1,29.87,East,79,3.0,5.0,76,0.00,,,0.00,0,Wunderground v.1.15,2013-08-05 09:44:00,
2013-08-05 03:50:00,47.3,40.1,29.87,East,82,4.0,5.0,76,0.00,,,0.00,0,Wunderground v.1.15,2013-08-05 09:50:00,
2013-08-05 03:56:00,47.4,40.2,29.87,East,82,4.0,5.0,76,0.00,,,0.00,0,Wunderground v.1.15,2013-08-05 09:56:00,
2013-08-05 04:08:00,47.3,39.8,29.87,East,83,3.0,5.0,75,0.00,,,0.00,0,Wunderground v.1.15,2013-08-05 10:08:00,
2013-08-05 04:14:00,47.0,39.1,29.87,East,84,4.0,4.0,74,0.00,,,0.00,0,Wunderground v.1.15,2013-08-05 10:14:00,
2013-08-05 04:20:00,46.8,39.6,29.87,East,80,4.0,5.0,76,0.00,,,0.00,0,Wunderground v.1.15,2013-08-05 10:20:00,
2013-08-05 04:26:00,46.7,39.5,29.86,East,79,3.0,5.0,76,0.00,,,0.00,0,Wunderground v.1.15,2013-08-05 10:26:00,
2013-08-05 04:32:00,46.9,40.1,29.86,ENE,78,4.0,6.0,77,0.00,,,0.00,0,Wunderground v.1.15,2013-08-05 10:32:00,
2013-08-05 04:42:00,47.5,40.0,29.87,East,86,5.0,5.0,75,0.00,,,0.00,0,Wunderground v.1.15,2013-08-05 10:42:00,
2013-08-05 04:47:00,47.5,40.0,29.86,East,86,4.0,6.0,75,0.00,,,0.00,0,Wunderground v.1.15,2013-08-05 10:47:00,
2013-08-05 04:54:00,47.0,39.5,29.86,East,82,4.0,6.0,75,0.00,,,0.00,0,Wunderground v.1.15,2013-08-05 10:54:00,
2013-08-05 04:59:00,46.9,39.7,29.86,East,80,4.0,4.0,76,0.00,,,0.00,0,Wunderground v.1.15,2013-08-05 10:59:00,
2013-08-05 05:06:00,46.7,39.5,29.86,ENE,66,3.0,4.0,76,0.00,,,0.00,0,Wunderground v.1.15,2013-08-05 11:06:00,
2013-08-05 05:12:00,46.9,39.7,29.85,NE,53,4.0,6.0,76,0.00,,,0.00,0,Wunderground v.1.15,2013-08-05 11:12:00,
2013-08-05 05:18:00,47.4,39.9,29.85,ENE,68,5.0,6.0,75,0.00,,,0.00,0,Wunderground v.1.15,2013-08-05 11:18:00,
2013-08-05 05:23:00,48.0,40.1,29.85,ENE,76,4.0,5.0,74,0.00,,,0.00,0,Wunderground v.1.15,2013-08-05 11:23:00,
2013-08-05 05:30:00,48.3,40.0,29.85,ENE,78,3.0,3.0,73,0.00,,,0.00,0,Wunderground v.1.15,2013-08-05 11:30:00,
2013-08-05 05:35:00,48.0,39.8,29.85,East,82,4.0,5.0,73,0.00,,,0.00,0,Wunderground v.1.15,2013-08-05 11:35:00,
2013-08-05 05:42:00,47.4,39.5,29.84,ENE,74,6.0,6.0,74,0.00,,,0.00,0,Wunderground v.1.15,2013-08-05 11:42:00,
2013-08-05 05:47:00,46.9,39.4,29.84,East,84,6.0,6.0,75,0.00,,,0.00,0,Wunderground v.1.15,2013-08-05 11:47:00,
2013-08-05 05:54:00,46.7,39.5,29.84,ENE,78,5.0,6.0,76,0.00,,,0.00,0,Wunderground v.1.15,2013-08-05 11:54:00,
2013-08-05 05:59:00,46.5,39.0,29.84,ESE,108,4.0,6.0,75,0.00,,,0.00,0,Wunderground v.1.15,2013-08-05 11:59:00,
2013-08-05 06:06:00,46.3,38.8,29.84,East,79,4.0,6.0,75,0.00,,,0.00,0,Wunderground v.1.15,2013-08-05 12:06:00,
2013-08-05 06:12:00,46.0,38.5,29.84,East,83,4.0,5.0,75,0.00,,,0.00,0,Wunderground v.1.15,2013-08-05 12:12:00,
2013-08-05 06:17:00,45.6,38.8,29.84,East,79,4.0,5.0,77,0.00,,,0.00,5,Wunderground v.1.15,2013-08-05 12:17:00,
2013-08-05 06:23:00,45.4,38.9,29.85,ENE,78,4.0,4.0,78,0.00,,,0.00,7,Wunderground v.1.15,2013-08-05 12:23:00,
2013-08-05 06:30:00,45.3,39.2,29.85,ENE,78,4.0,4.0,79,0.00,,,0.00,11,Wunderground v.1.15,2013-08-05 12:30:00,
2013-08-05 06:36:00,45.3,39.2,29.84,East,79,3.0,4.0,79,0.00,,,0.00,14,Wunderground v.1.15,2013-08-05 12:36:00,
2013-08-05 06:42:00,45.4,39.6,29.84,ENE,78,3.0,5.0,80,0.00,,,0.00,19,Wunderground v.1.15,2013-08-05 12:42:00,
2013-08-05 06:48:00,45.8,40.0,29.84,ENE,74,4.0,5.0,80,0.00,,,0.00,25,Wunderground v.1.15,2013-08-05 12:48:00,
2013-08-05 06:54:00,46.3,40.1,29.84,ENE,66,5.0,6.0,79,0.00,,,0.00,26,Wunderground v.1.15,2013-08-05 12:54:00,
2013-08-05 07:02:00,47.1,40.6,29.85,ENE,75,4.0,4.0,78,0.00,,,0.00,28,Wunderground v.1.15,2013-08-05 13:02:00,
2013-08-05 07:08:00,47.8,40.9,29.85,ENE,70,4.0,5.0,77,0.00,,,0.00,32,Wunderground v.1.15,2013-08-05 13:08:00,
2013-08-05 07:14:00,48.5,41.3,29.85,ENE,69,4.0,4.0,76,0.00,,,0.00,33,Wunderground v.1.15,2013-08-05 13:14:00,
2013-08-05 07:20:00,49.2,41.6,29.86,ENE,74,4.0,5.0,75,0.00,,,0.00,35,Wunderground v.1.15,2013-08-05 13:20:00,
2013-08-05 07:25:00,49.9,41.6,29.85,ENE,57,5.0,11.0,73,0.00,,,0.00,37,Wunderground v.1.15,2013-08-05 13:25:00,
2013-08-05 07:32:00,50.7,42.0,29.85,ENE,61,5.0,7.0,72,0.00,,,0.00,39,Wunderground v.1.15,2013-08-05 13:32:00,
2013-08-05 07:38:00,51.7,41.9,29.85,NE,49,6.0,7.0,69,0.00,,,0.00,42,Wunderground v.1.15,2013-08-05 13:38:00,
2013-08-05 07:44:00,52.8,42.1,29.85,NE,42,7.0,7.0,67,0.00,,,0.00,46,Wunderground v.1.15,2013-08-05 13:44:00,
2013-08-05 07:50:00,53.9,42.8,29.85,SE,127,5.0,7.0,66,0.00,,,0.00,53,Wunderground v.1.15,2013-08-05 13:50:00,
2013-08-05 07:56:00,54.8,43.3,29.85,East,80,5.0,6.0,65,0.00,,,0.00,53,Wunderground v.1.15,2013-08-05 13:56:00,
2013-08-05 08:02:00,55.8,43.4,29.84,NE,53,4.0,5.0,63,0.00,,,0.00,53,Wunderground v.1.15,2013-08-05 14:02:00,
2013-08-05 08:09:00,57.0,43.7,29.85,East,85,4.0,4.0,61,0.00,,,0.00,60,Wunderground v.1.15,2013-08-05 14:09:00,
2013-08-05 08:16:00,58.1,44.3,29.85,East,80,4.0,5.0,60,0.00,,,0.00,97,Wunderground v.1.15,2013-08-05 14:16:00,
2013-08-05 08:22:00,59.1,44.8,29.85,ENE,59,5.0,8.0,59,0.00,,,0.00,158,Wunderground v.1.15,2013-08-05 14:22:00,
2013-08-05 08:28:00,60.0,44.3,29.84,NE,51,5.0,8.0,56,0.00,,,0.00,223,Wunderground v.1.15,2013-08-05 14:28:00,
2013-08-05 08:33:00,61.0,45.2,29.83,ENE,73,5.0,9.0,56,0.00,,,0.00,294,Wunderground v.1.15,2013-08-05 14:33:00,
2013-08-05 08:40:00,62.1,45.7,29.84,NE,50,5.0,9.0,55,0.00,,,0.00,348,Wunderground v.1.15,2013-08-05 14:40:00,
2013-08-05 08:48:00,63.6,44.6,29.83,ENE,64,6.0,9.0,50,0.00,,,0.00,367,Wunderground v.1.15,2013-08-05 14:48:00,
2013-08-05 08:54:00,64.6,45.0,29.83,NE,54,8.0,13.0,49,0.00,,,0.00,380,Wunderground v.1.15,2013-08-05 14:54:00,
2013-08-05 09:00:00,65.4,45.2,29.83,NE,35,9.0,9.0,48,0.00,,,0.00,404,Wunderground v.1.15,2013-08-05 15:00:00,
2013-08-05 09:06:00,66.2,44.2,29.82,NE,40,8.0,9.0,45,0.00,,,0.00,446,Wunderground v.1.15,2013-08-05 15:06:00,
2013-08-05 09:12:00,67.1,45.0,29.82,NE,37,8.0,11.0,45,0.00,,,0.00,427,Wunderground v.1.15,2013-08-05 15:12:00,
2013-08-05 09:17:00,67.6,44.9,29.83,ENE,58,9.0,13.0,44,0.00,,,0.00,383,Wunderground v.1.15,2013-08-05 15:17:00,
2013-08-05 09:24:00,67.9,45.8,29.82,ENE,59,8.0,11.0,45,0.00,,,0.00,487,Wunderground v.1.15,2013-08-05 15:24:00,
2013-08-05 09:30:00,68.6,44.6,29.82,NE,48,9.0,9.0,42,0.00,,,0.00,434,Wunderground v.1.15,2013-08-05 15:30:00,
2013-08-05 09:36:00,69.4,45.3,29.82,ENE,61,8.0,9.0,42,0.00,,,0.00,522,Wunderground v.1.15,2013-08-05 15:36:00,
2013-08-05 09:42:00,70.5,45.7,29.81,East,84,6.0,6.0,41,0.00,,,0.00,534,Wunderground v.1.15,2013-08-05 15:42:00,
2013-08-05 09:48:00,71.6,46.0,29.81,NE,55,5.0,8.0,40,0.00,,,0.00,548,Wunderground v.1.15,2013-08-05 15:48:00,
2013-08-05 09:54:00,72.7,42.7,29.82,ENE,62,5.0,5.0,34,0.00,,,0.00,557,Wunderground v.1.15,2013-08-05 15:54:00,
2013-08-05 10:00:00,73.6,45.0,29.81,ENE,76,5.0,5.0,36,0.00,,,0.00,577,Wunderground v.1.15,2013-08-05 16:00:00,
2013-08-05 10:07:00,74.5,45.8,29.81,NE,55,6.0,7.0,36,0.00,,,0.00,606,Wunderground v.1.15,2013-08-05 16:07:00,
2013-08-05 10:15:00,75.3,45.7,29.81,ENE,57,7.0,11.0,35,0.00,,,0.00,682,Wunderground v.1.15,2013-08-05 16:15:00,
2013-08-05 10:22:00,76.1,47.9,29.81,East,86,7.0,9.0,37,0.00,,,0.00,777,Wunderground v.1.15,2013-08-05 16:22:00,
2013-08-05 10:28:00,77.2,45.9,29.81,NE,43,7.0,9.0,33,0.00,,,0.00,835,Wunderground v.1.15,2013-08-05 16:28:00,
2013-08-05 10:33:00,77.4,43.5,29.81,ENE,57,8.0,11.0,30,0.00,,,0.00,322,Wunderground v.1.15,2013-08-05 16:33:00,
2013-08-05 10:40:00,77.2,45.0,29.81,NNE,23,7.0,11.0,32,0.00,,,0.00,904,Wunderground v.1.15,2013-08-05 16:40:00,
2013-08-05 10:46:00,77.3,45.1,29.80,NE,45,6.0,10.0,32,0.00,,,0.00,308,Wunderground v.1.15,2013-08-05 16:46:00,
2013-08-05 10:52:00,77.2,45.9,29.80,ENE,78,6.0,8.0,33,0.00,,,0.00,287,Wunderground v.1.15,2013-08-05 16:52:00,
2013-08-05 10:58:00,77.1,45.8,29.80,East,92,4.0,8.0,33,0.00,,,0.00,374,Wunderground v.1.15,2013-08-05 16:58:00,
2013-08-05 11:03:00,77.1,45.0,29.80,ENE,76,3.0,4.0,32,0.00,,,0.00,278,Wunderground v.1.15,2013-08-05 17:03:00,
2013-08-05 11:10:00,77.4,46.8,29.80,East,83,1.0,1.0,34,0.00,,,0.00,935,Wunderground v.1.15,2013-08-05 17:10:00,
2013-08-05 11:16:00,77.8,52.2,29.80,SW,234,2.0,6.0,41,0.00,,,0.00,304,Wunderground v.1.15,2013-08-05 17:16:00,
2013-08-05 11:24:00,77.0,52.1,29.81,WSW,249,9.0,12.0,42,0.00,,,0.00,854,Wunderground v.1.15,2013-08-05 17:24:00,
2013-08-05 11:29:00,76.0,51.2,29.81,WSW,258,12.0,12.0,42,0.00,,,0.00,842,Wunderground v.1.15,2013-08-05 17:29:00,
2013-08-05 11:36:00,75.3,50.0,29.81,West,279,12.0,12.0,41,0.00,,,0.00,902,Wunderground v.1.15,2013-08-05 17:36:00,
2013-08-05 11:42:00,74.8,49.5,29.80,SW,229,12.0,14.0,41,0.00,,,0.00,826,Wunderground v.1.15,2013-08-05 17:42:00,
2013-08-05 11:48:00,74.5,49.9,29.80,West,277,10.0,14.0,42,0.00,,,0.00,446,Wunderground v.1.15,2013-08-05 17:48:00,
2013-08-05 11:54:00,74.3,51.6,29.79,West,275,8.0,10.0,45,0.00,,,0.00,1000,Wunderground v.1.15,2013-08-05 17:54:00,
2013-08-05 12:00:00,75.3,50.0,29.79,West,276,8.0,8.0,41,0.00,,,0.00,882,Wunderground v.1.15,2013-08-05 18:00:00,
2013-08-05 12:06:00,76.3,50.2,29.79,West,271,8.0,9.0,40,0.00,,,0.00,868,Wunderground v.1.15,2013-08-05 18:06:00,
2013-08-05 12:12:00,77.5,51.9,29.79,WSW,245,9.0,12.0,41,0.00,,,0.00,879,Wunderground v.1.15,2013-08-05 18:12:00,
2013-08-05 12:18:00,78.5,48.6,29.78,SW,236,9.0,12.0,35,0.00,,,0.00,905,Wunderground v.1.15,2013-08-05 18:18:00,
2013-08-05 12:24:00,79.5,48.7,29.79,WSW,250,8.0,14.0,34,0.00,,,0.00,1053,Wunderground v.1.15,2013-08-05 18:24:00,
2013-08-05 12:30:00,80.1,50.0,29.79,WSW,257,9.0,12.0,35,0.00,,,0.00,647,Wunderground v.1.15,2013-08-05 18:30:00,
2013-08-05 12:36:00,80.3,50.1,29.79,WSW,242,10.0,12.0,35,0.00,,,0.00,1132,Wunderground v.1.15,2013-08-05 18:36:00,
2013-08-05 12:42:00,80.0,48.3,29.79,WSW,251,10.0,10.0,33,0.00,,,0.00,185,Wunderground v.1.15,2013-08-05 18:42:00,
2013-08-05 12:52:00,77.9,48.0,29.79,WSW,254,8.0,8.0,35,0.00,,,0.00,172,Wunderground v.1.15,2013-08-05 18:52:00,
2013-08-05 12:58:00,76.5,47.6,29.79,SW,236,7.0,9.0,36,0.00,,,0.00,149,Wunderground v.1.15,2013-08-05 18:58:00,
2013-08-05 13:04:00,75.4,48.7,29.79,WSW,245,6.0,7.0,39,0.00,,,0.00,174,Wunderground v.1.15,2013-08-05 19:04:00,
2013-08-05 13:10:00,74.6,53.6,29.79,WSW,248,5.0,5.0,48,0.00,,,0.00,346,Wunderground v.1.15,2013-08-05 19:10:00,
2013-08-05 13:18:00,74.4,55.6,29.78,WSW,245,5.0,10.0,52,0.00,,,0.00,944,Wunderground v.1.15,2013-08-05 19:18:00,
2013-08-05 13:24:00,75.6,52.1,29.78,WSW,257,7.0,10.0,44,0.00,,,0.00,605,Wunderground v.1.15,2013-08-05 19:24:00,
2013-08-05 13:30:00,77.1,49.5,29.77,WSW,250,8.0,11.0,38,0.00,,,0.00,1004,Wunderground v.1.15,2013-08-05 19:30:00,
2013-08-05 13:38:00,78.3,49.1,29.77,West,261,7.0,11.0,36,0.00,,,0.00,234,Wunderground v.1.15,2013-08-05 19:38:00,
2013-08-05 13:44:00,78.2,50.5,29.78,WSW,250,7.0,7.0,38,0.00,,,0.00,142,Wunderground v.1.15,2013-08-05 19:44:00,
2013-08-05 13:50:00,77.6,51.4,29.78,WSW,252,5.0,5.0,40,0.00,,,0.00,167,Wunderground v.1.15,2013-08-05 19:50:00,
2013-08-05 13:56:00,77.0,56.9,29.78,WSW,252,2.0,5.0,50,0.00,,,0.00,367,Wunderground v.1.15,2013-08-05 19:56:00,
2013-08-05 14:02:00,76.3,57.9,29.77,WSW,252,0.0,1.0,53,0.00,,,0.00,946,Wunderground v.1.15,2013-08-05 20:02:00,
2013-08-05 14:08:00,75.7,56.3,29.77,WSW,253,0.0,1.0,51,0.00,,,0.00,998,Wunderground v.1.15,2013-08-05 20:08:00,
2013-08-05 14:14:00,75.7,55.2,29.76,NW,312,0.0,0.0,49,0.00,,,0.00,1081,Wunderground v.1.15,2013-08-05 20:14:00,
2013-08-05 14:20:00,76.1,52.0,29.76,NNE,12,1.0,1.0,43,0.00,,,0.00,1120,Wunderground v.1.15,2013-08-05 20:20:00,
2013-08-05 14:28:00,77.1,52.2,29.75,WSW,254,0.0,7.0,42,0.00,,,0.00,1085,Wunderground v.1.15,2013-08-05 20:28:00,
2013-08-05 14:34:00,78.1,50.4,29.75,West,268,4.0,6.0,38,0.00,,,0.00,283,Wunderground v.1.15,2013-08-05 20:34:00,
2013-08-05 14:40:00,78.6,51.6,29.75,WNW,284,5.0,5.0,39,0.00,,,0.00,1118,Wunderground v.1.15,2013-08-05 20:40:00,
2013-08-05 14:48:00,79.4,47.0,29.75,West,277,3.0,5.0,32,0.00,,,0.00,406,Wunderground v.1.15,2013-08-05 20:48:00,
2013-08-05 14:54:00,80.3,50.9,29.74,West,261,4.0,7.0,36,0.00,,,0.00,963,Wunderground v.1.15,2013-08-05 20:54:00,
2013-08-05 15:00:00,81.3,51.0,29.74,SW,226,6.0,12.0,35,0.00,,,0.00,872,Wunderground v.1.15,2013-08-05 21:00:00,
2013-08-05 15:08:00,82.5,52.1,29.74,WSW,252,8.0,12.0,35,0.00,,,0.00,969,Wunderground v.1.15,2013-08-05 21:08:00,
2013-08-05 15:14:00,83.2,51.1,29.75,WSW,246,7.0,10.0,33,0.00,,,0.00,977,Wunderground v.1.15,2013-08-05 21:14:00,
2013-08-05 15:20:00,83.8,50.8,29.75,SW,236,9.0,9.0,32,0.00,,,0.00,295,Wunderground v.1.15,2013-08-05 21:20:00,
2013-08-05 15:26:00,83.7,49.9,29.75,West,261,7.0,9.0,31,0.00,,,0.00,986,Wunderground v.1.15,2013-08-05 21:26:00,
2013-08-05 15:32:00,83.4,51.3,29.74,WNW,283,4.0,5.0,33,0.00,,,0.00,904,Wunderground v.1.15,2013-08-05 21:32:00,
2013-08-05 15:40:00,83.4,51.3,29.74,WSW,247,6.0,9.0,33,0.00,,,0.00,206,Wunderground v.1.15,2013-08-05 21:40:00,
2013-08-05 15:48:00,83.1,49.3,29.74,WSW,240,8.0,12.0,31,0.00,,,0.00,962,Wunderground v.1.15,2013-08-05 21:48:00,
2013-08-05 15:54:00,83.2,49.4,29.73,SW,218,6.0,11.0,31,0.00,,,0.00,684,Wunderground v.1.15,2013-08-05 21:54:00,
2013-08-05 16:00:00,83.2,47.6,29.73,NE,52,5.0,5.0,29,0.00,,,0.00,272,Wunderground v.1.15,2013-08-05 22:00:00,
2013-08-05 16:06:00,82.9,44.5,29.73,ENE,59,2.0,5.0,26,0.00,,,0.00,735,Wunderground v.1.15,2013-08-05 22:06:00,
2013-08-05 16:14:00,82.7,49.0,29.73,WSW,246,2.0,11.0,31,0.00,,,0.00,691,Wunderground v.1.15,2013-08-05 22:14:00,
2013-08-05 16:20:00,83.0,43.5,29.72,WNW,283,4.0,4.0,25,0.00,,,0.00,754,Wunderground v.1.15,2013-08-05 22:20:00,
2013-08-05 16:26:00,83.1,42.6,29.72,WNW,284,2.0,4.0,24,0.00,,,0.00,594,Wunderground v.1.15,2013-08-05 22:26:00,
2013-08-05 16:33:00,83.4,47.8,29.71,West,260,2.0,4.0,29,0.00,,,0.00,622,Wunderground v.1.15,2013-08-05 22:33:00,
2013-08-05 16:40:00,83.9,50.0,29.71,WSW,241,3.0,3.0,31,0.00,,,0.00,633,Wunderground v.1.15,2013-08-05 22:40:00,
2013-08-05 16:46:00,84.1,43.4,29.72,SSW,194,7.0,17.0,24,0.00,,,0.00,464,Wunderground v.1.15,2013-08-05 22:46:00,
2013-08-05 16:52:00,83.6,44.1,29.71,SSE,165,13.0,13.0,25,0.00,,,0.00,615,Wunderground v.1.15,2013-08-05 22:52:00,
2013-08-05 17:00:00,83.2,43.7,29.71,South,174,12.0,12.0,25,0.00,,,0.00,722,Wunderground v.1.15,2013-08-05 23:00:00,
2013-08-05 17:06:00,83.4,42.8,29.71,South,180,12.0,14.0,24,0.00,,,0.00,671,Wunderground v.1.15,2013-08-05 23:06:00,
2013-08-05 17:12:00,83.6,43.0,29.71,SSW,206,12.0,14.0,24,0.00,,,0.00,573,Wunderground v.1.15,2013-08-05 23:12:00,
2013-08-05 17:18:00,83.5,40.6,29.71,SSE,162,12.0,16.0,22,0.00,,,0.00,163,Wunderground v.1.15,2013-08-05 23:18:00,
2013-08-05 17:24:00,82.9,43.5,29.71,South,169,13.0,14.0,25,0.00,,,0.00,547,Wunderground v.1.15,2013-08-05 23:24:00,
2013-08-05 17:30:00,82.7,42.2,29.71,SSE,160,11.0,11.0,24,0.00,,,0.00,510,Wunderground v.1.15,2013-08-05 23:30:00,
2013-08-05 17:36:00,82.9,41.3,29.70,SSW,204,9.0,13.0,23,0.00,,,0.00,510,Wunderground v.1.15,2013-08-05 23:36:00,
2013-08-05 17:42:00,83.5,42.9,29.70,SSE,160,10.0,15.0,24,0.00,,,0.00,670,Wunderground v.1.15,2013-08-05 23:42:00,
2013-08-05 17:48:00,83.6,40.7,29.71,SSW,207,13.0,17.0,22,0.00,,,0.00,271,Wunderground v.1.15,2013-08-05 23:48:00,
2013-08-05 17:54:00,83.2,42.6,29.71,South,178,11.0,12.0,24,0.00,,,0.00,552,Wunderground v.1.15,2013-08-05 23:54:00,
2013-08-05 18:00:00,83.1,44.7,29.70,SSW,208,9.0,10.0,26,0.00,,,0.00,603,Wunderground v.1.15,2013-08-06 00:00:00,
2013-08-05 18:06:00,83.1,42.6,29.71,South,188,9.0,13.0,24,0.00,,,0.00,529,Wunderground v.1.15,2013-08-06 00:06:00,
2013-08-05 18:12:00,83.0,43.5,29.71,SSW,192,9.0,10.0,25,0.00,,,0.00,561,Wunderground v.1.15,2013-08-06 00:12:00,
2013-08-05 18:18:00,83.2,43.7,29.71,South,188,7.0,10.0,25,0.00,,,0.00,522,Wunderground v.1.15,2013-08-06 00:18:00,
2013-08-05 18:24:00,83.4,41.7,29.70,South,186,9.0,13.0,23,0.00,,,0.00,487,Wunderground v.1.15,2013-08-06 00:24:00,
2013-08-05 18:30:00,83.3,43.8,29.70,SSE,168,10.0,13.0,25,0.00,,,0.00,471,Wunderground v.1.15,2013-08-06 00:30:00,
2013-08-05 18:36:00,83.1,42.6,29.71,SSW,198,9.0,13.0,24,0.00,,,0.00,448,Wunderground v.1.15,2013-08-06 00:36:00,
2013-08-05 18:42:00,82.9,41.3,29.71,SSW,192,9.0,15.0,23,0.00,,,0.00,417,Wunderground v.1.15,2013-08-06 00:42:00,
2013-08-05 18:48:00,82.4,40.9,29.70,South,170,9.0,15.0,23,0.00,,,0.00,374,Wunderground v.1.15,2013-08-06 00:48:00,
2013-08-05 18:58:00,81.7,43.5,29.71,SSW,210,10.0,13.0,26,0.00,,,0.00,329,Wunderground v.1.15,2013-08-06 00:58:00,
2013-08-05 19:04:00,81.3,42.1,29.71,South,184,10.0,16.0,25,0.00,,,0.00,302,Wunderground v.1.15,2013-08-06 01:04:00,
2013-08-05 19:10:00,81.1,43.0,29.71,SSW,198,7.0,7.0,26,0.00,,,0.00,279,Wunderground v.1.15,2013-08-06 01:10:00,
2013-08-05 19:18:00,80.6,43.5,29.71,SW,219,9.0,14.0,27,0.00,,,0.00,220,Wunderground v.1.15,2013-08-06 01:18:00,
2013-08-05 19:28:00,79.6,43.6,29.71,SW,220,10.0,13.0,28,0.00,,,0.00,209,Wunderground v.1.15,2013-08-06 01:28:00,
2013-08-05 19:34:00,78.9,44.8,29.72,SW,223,8.0,10.0,30,0.00,,,0.00,44,Wunderground v.1.15,2013-08-06 01:34:00,
2013-08-05 19:40:00,78.1,46.6,29.72,SW,232,6.0,7.0,33,0.00,,,0.00,163,Wunderground v.1.15,2013-08-06 01:40:00,
2013-08-05 19:48:00,77.0,44.0,29.72,SSW,207,7.0,9.0,31,0.00,,,0.00,42,Wunderground v.1.15,2013-08-06 01:48:00,
2013-08-05 19:56:00,76.0,46.4,29.73,SW,229,6.0,8.0,35,0.00,,,0.00,120,Wunderground v.1.15,2013-08-06 01:56:00,
2013-08-05 20:02:00,75.4,46.6,29.72,WSW,246,5.0,6.0,36,0.00,,,0.00,91,Wunderground v.1.15,2013-08-06 02:02:00,
2013-08-05 20:08:00,74.9,48.3,29.73,SW,234,5.0,6.0,39,0.00,,,0.00,97,Wunderground v.1.15,2013-08-06 02:08:00,
2013-08-05 20:14:00,74.5,44.3,29.72,West,259,4.0,6.0,34,0.00,,,0.00,70,Wunderground v.1.15,2013-08-06 02:14:00,
2013-08-05 20:20:00,74.1,44.7,29.73,West,259,5.0,5.0,35,0.00,,,0.00,58,Wunderground v.1.15,2013-08-06 02:20:00,
2013-08-05 20:28:00,73.5,45.6,29.73,West,268,4.0,6.0,37,0.00,,,0.00,47,Wunderground v.1.15,2013-08-06 02:28:00,
2013-08-05 20:34:00,73.0,45.9,29.73,West,265,4.0,8.0,38,0.00,,,0.00,32,Wunderground v.1.15,2013-08-06 02:34:00,
2013-08-05 20:40:00,72.5,45.4,29.74,WSW,250,5.0,5.0,38,0.00,,,0.00,23,Wunderground v.1.15,2013-08-06 02:40:00,
2013-08-05 20:46:00,71.8,44.1,29.74,West,271,5.0,5.0,37,0.00,,,0.00,12,Wunderground v.1.15,2013-08-06 02:46:00,
2013-08-05 20:52:00,71.3,43.7,29.74,West,273,4.0,8.0,37,0.00,,,0.00,7,Wunderground v.1.15,2013-08-06 02:52:00,
2013-08-05 21:00:00,70.6,44.4,29.75,West,271,3.0,3.0,39,0.00,,,0.00,5,Wunderground v.1.15,2013-08-06 03:00:00,
2013-08-05 21:08:00,70.0,42.5,29.75,West,275,3.0,4.0,37,0.00,,,0.00,0,Wunderground v.1.15,2013-08-06 03:08:00,
2013-08-05 21:16:00,69.2,41.1,29.75,West,279,3.0,4.0,36,0.00,,,0.00,0,Wunderground v.1.15,2013-08-06 03:16:00,
2013-08-05 21:22:00,68.7,40.7,29.75,West,279,3.0,3.0,36,0.00,,,0.00,0,Wunderground v.1.15,2013-08-06 03:22:00,
2013-08-05 21:32:00,68.2,40.9,29.76,West,279,0.0,0.0,37,0.00,,,0.00,0,Wunderground v.1.15,2013-08-06 03:32:00,
2013-08-05 21:38:00,67.5,40.3,29.76,West,279,1.0,3.0,37,0.00,,,0.00,0,Wunderground v.1.15,2013-08-06 03:38:00,
2013-08-05 21:44:00,66.9,40.5,29.77,West,279,1.0,1.0,38,0.00,,,0.00,0,Wunderground v.1.15,2013-08-06 03:44:00,
2013-08-05 21:50:00,66.3,40.6,29.77,West,279,0.0,1.0,39,0.00,,,0.00,0,Wunderground v.1.15,2013-08-06 03:50:00,
2013-08-05 21:56:00,65.6,40.0,29.77,West,279,1.0,2.0,39,0.00,,,0.00,0,Wunderground v.1.15,2013-08-06 03:56:00,
2013-08-05 22:03:00,65.0,42.5,29.77,West,279,0.0,1.0,44,0.00,,,0.00,0,Wunderground v.1.15,2013-08-06 04:03:00,
2013-08-05 22:04:00,64.9,42.5,29.77,West,279,0.0,2.0,44,0.00,,,0.00,0,Wunderground v.1.15,2013-08-06 04:04:00,
2013-08-05 22:10:00,64.3,40.7,29.78,West,279,2.0,2.0,42,0.00,,,0.00,0,Wunderground v.1.15,2013-08-06 04:10:00,
2013-08-05 22:16:00,63.9,40.3,29.78,West,279,3.0,3.0,42,0.00,,,0.00,0,Wunderground v.1.15,2013-08-06 04:16:00,
2013-08-05 22:22:00,63.4,40.5,29.78,West,279,3.0,3.0,43,0.00,,,0.00,0,Wunderground v.1.15,2013-08-06 04:22:00,
2013-08-05 22:26:00,63.2,40.3,29.78,West,279,3.0,4.0,43,0.00,,,0.00,0,Wunderground v.1.15,2013-08-06 04:26:00,
2013-08-05 22:32:00,62.9,40.6,29.78,West,279,3.0,3.0,44,0.00,,,0.00,0,Wunderground v.1.15,2013-08-06 04:32:00,
2013-08-05 22:38:00,62.8,41.1,29.78,West,279,2.0,3.0,45,0.00,,,0.00,0,Wunderground v.1.15,2013-08-06 04:38:00,
2013-08-05 22:46:00,62.5,40.9,29.78,West,279,2.0,3.0,45,0.00,,,0.00,0,Wunderground v.1.15,2013-08-06 04:46:00,
2013-08-05 22:52:00,62.2,40.6,29.78,West,279,2.0,2.0,45,0.00,,,0.01,0,Wunderground v.1.15,2013-08-06 04:52:00,
2013-08-05 22:58:00,61.9,42.5,29.79,WNW,291,1.0,4.0,49,0.00,,,0.01,0,Wunderground v.1.15,2013-08-06 04:58:00,
2013-08-05 23:04:00,61.4,42.6,29.79,WNW,291,2.0,2.0,50,0.00,,,0.01,0,Wunderground v.1.15,2013-08-06 05:04:00,
2013-08-05 23:10:00,61.0,42.2,29.79,ENE,63,2.0,2.0,50,0.00,,,0.01,0,Wunderground v.1.15,2013-08-06 05:10:00,
2013-08-05 23:16:00,60.7,43.5,29.79,ENE,64,1.0,2.0,53,0.00,,,0.01,0,Wunderground v.1.15,2013-08-06 05:16:00,
2013-08-05 23:22:00,60.3,43.1,29.79,ENE,64,0.0,0.0,53,0.00,,,0.01,0,Wunderground v.1.15,2013-08-06 05:22:00,
2013-08-05 23:28:00,59.7,43.0,29.79,ENE,64,0.0,0.0,54,0.00,,,0.01,0,Wunderground v.1.15,2013-08-06 05:28:00,
2013-08-05 23:34:00,59.1,42.9,29.79,ENE,65,1.0,1.0,55,0.00,,,0.01,0,Wunderground v.1.15,2013-08-06 05:34:00,
2013-08-05 23:40:00,58.4,43.2,29.79,ENE,65,1.0,1.0,57,0.00,,,0.01,0,Wunderground v.1.15,2013-08-06 05:40:00,
2013-08-05 23:46:00,57.8,42.7,29.79,ENE,65,0.0,1.0,57,0.00,,,0.01,0,Wunderground v.1.15,2013-08-06 05:46:00,
2013-08-05 23:52:00,57.1,42.5,29.79,ENE,65,0.0,0.0,58,0.00,,,0.01,0,Wunderground v.1.15,2013-08-06 05:52:00,
2013-08-05 23:58:00,56.4,42.7,29.80,ENE,65,1.0,1.0,60,0.00,,,0.00,0,Wunderground v.1.15,2013-08-06 05:58:00,